Location: Waco, TX
(31.5480°N, 97.1670°W)
Time: 15:50:54
(UTC-06:00)

ISS - Pass Details

Date: 30 January 2021
Orbit: 417 x 422 km, 51.6° (Epoch: 07 March)

Event Time Altitude Azimuth Distance (km) Brightness Sun altitude
Rises 14:43:13 0° 254° (WSW) 2,353 0.7 33.1°
Reaches altitude 10° 14:45:37 10° 270° (W) 1,494 -0.4 32.8°
Maximum altitude 14:48:17 21° 323° (NW) 986 -1.9 32.4°
Drops below altitude 10° 14:50:58 10° 16° (NNE) 1,502 -1.3 32.1°
Sets 14:53:24 0° 32° (NNE) 2,369 -0.5 31.8°
